[[{"header":{"parameterUnit":"m.s-1","parameterCategory":1,"la1":30.2991,"la2":30.254,"lo1":-89.0895,"lo2":-89.0444,"dy":0.0017,"dx":0.0017,"nx":28,"ny":28,"refTime":"2025-03-12T21:00:00:Z","depth":0,"parameterNumber":2,"parameterNumberName":"U-component_of_WINDS"},"data":[0,0,0,0,0,0,0,0,0,0,0,0,0,0,0,0,0,0,0,0,0,0,0,0,0,0,0,0,0,0,0,0,0,0,0,0,0,0,0,0,0,0,0,0,0,0,0,0,0,0,0,0,0,0,0,0,0,0,-1.2874,-1.2874,0,-1.2888,-1.2888,-1.2888,-1.2883,-1.2883,-1.2883,-1.2883,-1.2895,-1.2896,-1.2896,0,0,0,0,0,0,0,0,0,0,0,0,0,-1.2841,-1.2841,-1.2873,-1.2874,-1.2874,-1.2888,-1.2888,-1.2888,-1.2883,-1.2883,-1.2883,-1.2882,-1.2895,-1.2896,-1.2896,0,0,0,0,0,0,0,0,0,0,0,0,0,-1.2855,-1.2842,-1.2873,-1.2873,-1.2873,-1.2888,-1.2888,-1.2888,-1.2884,-1.2883,-1.2883,-1.2882,-1.2895,-1.2896,-1.2896,-1.2911,0,0,-1.2899,-1.29,0,0,0,0,0,0,0,0,-1.2854,-1.2856,-1.2873,-1.2873,-1.2874,-1.2883,-1.2881,-1.2896,-1.2884,-1.288,-1.2883,-1.2882,-1.2891,-1.2893,-1.2896,-1.2912,-1.2912,-1.2899,-1.29,-1.29,-1.2901,0,0,0,0,0,0,0,-1.2853,-1.2856,-1.2879,-1.2873,-1.2874,-1.2872,-1.2873,-1.2884,-1.2888,-1.288,-1.288,-1.2882,-1.2891,-1.2895,-1.2896,-1.2912,-1.2899,-1.29,-1.2901,-1.2901,-1.294,-1.2941,0,0,0,0,0,0,-1.2852,-1.2855,-1.2879,-1.2879,-1.2863,-1.2873,-1.2875,-1.2881,-1.2888,-1.2888,-1.2882,-1.2881,-1.2894,-1.2895,-1.2897,-1.2914,-1.29,-1.2901,-1.2902,-1.294,-1.294,-1.2941,0,0,0,0,0,0,-1.2852,-1.2855,-1.2878,-1.2867,-1.287,-1.2874,-1.2881,-1.2881,-1.2885,-1.2889,-1.289,-1.2885,-1.2894,-1.2896,-1.2908,-1.2914,-1.2902,-1.2902,-1.2939,-1.294,-1.2941,-1.2949,0,0,0,0,0,0,-1.2851,-1.2854,-1.286,-1.2867,-1.2871,-1.2889,-1.2881,-1.2882,-1.2887,-1.2886,-1.2892,-1.2893,-1.2893,-1.2906,-1.2909,-1.2915,-1.2903,-1.2939,-1.294,-1.294,-1.2948,-1.2949,-1.2951,0,0,0,0,0,-1.285,-1.2862,-1.2861,-1.2863,-1.2878,-1.2889,-1.2891,-1.2892,-1.2887,-1.2893,-1.2896,-1.2893,-1.2914,-1.2908,-1.291,-1.2917,-1.2938,-1.2939,-1.294,-1.2947,-1.2949,-1.2951,0,0,0,0,0,0,-1.2854,-1.2862,-1.2861,-1.2876,-1.2882,-1.2889,-1.2896,-1.2894,-1.2901,-1.29,-1.2901,-1.2902,-1.2914,-1.2917,-1.291,-1.2932,-1.2925,-1.2927,-1.2929,-1.2931,-1.2933,-1.2932,-1.2904,0,0,0,0,0,-1.2857,-1.2866,-1.2873,-1.2885,-1.2888,-1.2892,-1.2897,-1.2897,-1.2903,-1.2905,-1.2909,-1.2914,-1.2922,-1.2927,-1.2934,-1.2949,-1.2949,-1.2955,-1.2956,-1.2958,-1.2959,-1.2966,-1.2968,-1.2945,-1.2945,-1.2944,0,0,-1.2863,-1.2868,-1.2874,-1.2886,-1.2891,-1.29,-1.2894,-1.2903,-1.291,-1.2906,-1.2918,-1.2921,-1.2927,-1.294,-1.2946,-1.2943,-1.2966,-1.2959,-1.296,-1.296,-1.2967,-1.297,-1.2972,-1.2945,-1.2945,-1.2945,0,0,-1.2878,-1.2883,-1.2894,-1.2899,-1.2907,-1.2909,-1.2912,-1.2919,-1.292,-1.2932,-1.293,-1.2938,-1.2951,-1.2955,-1.2959,-1.2977,-1.2974,-1.2979,-1.2987,-1.2994,-1.2996,-1.2998,-1.3003,-1.3005,-1.298,-1.298,-1.298,0,-1.2883,-1.2897,-1.2899,-1.2909,-1.2914,-1.2913,-1.2923,-1.2928,-1.2938,-1.2941,-1.2937,-1.2954,-1.2958,-1.2972,-1.2977,-1.298,-1.2982,-1.2978,-1.2996,-1.2998,-1.2999,-1.3004,-1.3006,-1.2981,-1.2981,-1.2981,-1.2981,0,-1.2904,-1.2913,-1.2921,-1.2931,-1.2937,-1.2947,-1.295,-1.2956,-1.2956,-1.2959,-1.2971,-1.2976,-1.2984,-1.2988,-1.2987,-1.3001,-1.2999,-1.2996,-1.2989,-1.3002,-1.3007,-1.3009,-1.2982,-1.2981,-1.2981,-1.2981,0,0,-1.2921,-1.2932,-1.2935,-1.2939,-1.2948,-1.2955,-1.2965,-1.2974,-1.2979,-1.2986,-1.2994,-1.3005,-1.3003,-1.3007,-1.3007,-1.3014,-1.3026,-1.301,-1.301,-1.3012,-1.3041,-1.3043,-1.3045,-1.3025,-1.3026,-1.3026,-1.3041,0,-1.2935,-1.2954,-1.2956,-1.2972,-1.2981,-1.298,-1.2989,-1.2995,-1.2997,-1.3005,-1.3008,-1.3016,-1.3012,-1.3014,-1.3021,-1.3024,-1.3032,-1.3023,-1.3032,-1.3032,-1.3029,-1.3048,-1.305,-1.3063,-1.3043,-1.3043,-1.3043,0,-1.2955,-1.2963,-1.298,-1.2988,-1.2991,-1.2999,-1.3007,-1.3015,-1.3021,-1.3023,-1.3029,-1.3028,-1.3038,-1.3032,-1.3045,-1.3038,-1.3042,-1.3044,-1.3045,-1.3045,-1.3038,-1.3048,-1.3068,-1.307,-1.3046,-1.3046,-1.3046,0,-1.2965,-1.298,-1.2992,-1.2996,-1.3005,-1.3011,-1.3015,-1.3021,-1.3026,-1.3034,-1.3037,-1.3045,-1.3049,-1.3055,-1.3057,-1.3052,-1.307,-1.3063,-1.307,-1.307,-1.3073,-1.3073,-1.3093,-1.3077,-1.3077,-1.3077,-1.3077,0,-1.298,-1.299,-1.2996,-1.3004,-1.3015,-1.3018,-1.3029,-1.3032,-1.3038,-1.3046,-1.3046,-1.3052,-1.3055,-1.3062,-1.3064,-1.3074,-1.3076,-1.3077,-1.3077,-1.3076,-1.3076,-1.3078,-1.3077,-1.3078,-1.3078,-1.3078,-1.3077,0,-1.2992,-1.2997,-1.301,-1.3018,-1.3021,-1.3028,-1.3035,-1.3042,-1.3045,-1.3055,-1.3057,-1.3062,-1.307,-1.3073,-1.3083,-1.3084,-1.3096,-1.3095,-1.3094,-1.3093,-1.31,-1.3099,-1.3122,-1.3124,-1.3107,-1.3108,-1.3108,0,-1.3002,-1.301,-1.3019,-1.3025,-1.3029,-1.3038,-1.3043,-1.3046,-1.3052,-1.3061,-1.3066,-1.3075,-1.3082,-1.3096,-1.3099,-1.3107,-1.3106,-1.3114,-1.3107,-1.3106,-1.3105,-1.3104,-1.3105,-1.3115,-1.3115,-1.3115,-1.3115,0,-1.3017,-1.3019,-1.3028,-1.3037,-1.3044,-1.3051,-1.3058,-1.3062,-1.3066,-1.3073,-1.3082,-1.3087,-1.3098,-1.3106,-1.3115,-1.3118,-1.3117,-1.3117,-1.3119,-1.3118,-1.3116,-1.3117,-1.3096,-1.3116,-1.3116,-1.3116,-1.3116,-1.3116,-1.3028,-1.3035,-1.3043,-1.3052,-1.3058,-1.3064,-1.3071,-1.3076,-1.3084,-1.3093,-1.3094,-1.3104,-1.311,-1.3121,-1.3125,-1.3132,-1.313,-1.3133,-1.3133,-1.3134,-1.3134,-1.3116,-1.3134,-1.3134,-1.3134,-1.3134,-1.3134,0,-1.3043,-1.3048,-1.3057,-1.3067,-1.3074,-1.3074,-1.3082,-1.3087,-1.3096,-1.3103,-1.311,-1.312,-1.3129,-1.3133,-1.3142,-1.3146,-1.3146,-1.3148,-1.3147,-1.3148,-1.3136,-1.3133,-1.3148,-1.3148,-1.3148,-1.3148,-1.3148,-1.3148,-1.3051,-1.3063,-1.3066,-1.308,-1.3085,-1.3095,-1.31,-1.3106,-1.3111,-1.3123,-1.313,-1.3134,-1.3139,-1.3148,-1.3155,-1.3157,-1.3159,-1.3161,-1.3162,-1.315,-1.3149,-1.3147,-1.3145,-1.3162,-1.3162,-1.3174,-1.3174,-1.3174]},{"header":{"parameterUnit":"m.s-1","parameterCategory":1,"la1":30.2991,"la2":30.254,"lo1":-89.0895,"lo2":-89.0444,"dy":0.0017,"dx":0.0017,"nx":28,"ny":28,"refTime":"2025-03-12T21:00:00:Z","depth":0,"parameterNumber":3,"parameterNumberName":"V-component_of_WINDS"},"data":[0,0,0,0,0,0,0,0,0,0,0,0,0,0,0,0,0,0,0,0,0,0,0,0,0,0,0,0,0,0,0,0,0,0,0,0,0,0,0,0,0,0,0,0,0,0,0,0,0,0,0,0,0,0,0,0,0,0,3.309,3.3089,0,3.3042,3.3041,3.3041,3.3015,3.3015,3.3015,3.3015,3.2963,3.2962,3.296,0,0,0,0,0,0,0,0,0,0,0,0,0,3.3159,3.3158,3.309,3.3089,3.3089,3.3042,3.3041,3.3041,3.3015,3.3015,3.3015,3.3015,3.2963,3.2962,3.296,0,0,0,0,0,0,0,0,0,0,0,0,0,3.3121,3.3157,3.309,3.3071,3.3068,3.3042,3.3041,3.304,3.3015,3.3015,3.3015,3.3015,3.2964,3.2962,3.296,3.2948,0,0,3.2954,3.2953,0,0,0,0,0,0,0,0,3.3124,3.3119,3.3074,3.3072,3.3069,3.3035,3.3046,3.3009,3.3015,3.3035,3.3015,3.3015,3.2987,3.2983,3.2974,3.2946,3.2943,3.2953,3.2952,3.2951,3.2951,0,0,0,0,0,0,0,3.3126,3.3121,3.3071,3.3073,3.3071,3.3064,3.3059,3.3039,3.3012,3.3034,3.3032,3.3027,3.2985,3.2976,3.2972,3.2943,3.2953,3.2952,3.295,3.295,3.2906,3.2906,0,0,0,0,0,0,3.3132,3.3123,3.3072,3.3069,3.3097,3.3063,3.3057,3.3046,3.3012,3.3007,3.3027,3.3026,3.2979,3.2975,3.297,3.2956,3.2951,3.2949,3.2948,3.2905,3.2906,3.2906,0,0,0,0,0,0,3.3134,3.3128,3.3074,3.3096,3.3089,3.3062,3.305,3.3045,3.3035,3.3007,3.3001,3.3022,3.2979,3.2973,3.2955,3.2954,3.2948,3.2947,3.2905,3.2905,3.2906,3.2927,0,0,0,0,0,0,3.3136,3.3129,3.3124,3.3096,3.3087,3.306,3.3049,3.3044,3.3032,3.303,3.3001,3.2996,3.2978,3.2958,3.2953,3.2951,3.2945,3.2905,3.2905,3.2906,3.2926,3.2927,3.2929,0,0,0,0,0,3.3138,3.3131,3.3124,3.3118,3.3081,3.306,3.3055,3.3036,3.3032,3.3027,3.301,3.2997,3.2955,3.2956,3.295,3.2948,3.2905,3.2905,3.2906,3.2925,3.2927,3.2929,0,0,0,0,0,0,3.3157,3.3126,3.3119,3.3102,3.3084,3.3056,3.3049,3.3038,3.302,3.3019,3.2995,3.2989,3.2973,3.2958,3.296,3.2936,3.2929,3.2928,3.2946,3.2947,3.2949,3.2953,3.2943,0,0,0,0,0,3.316,3.3146,3.3119,3.3107,3.3098,3.3075,3.3065,3.3053,3.3033,3.3024,3.3005,3.2986,3.2968,3.2957,3.2939,3.2924,3.2918,3.2919,3.2921,3.2922,3.2921,3.2914,3.2915,3.2906,3.2906,3.2906,0,0,3.3164,3.3146,3.3138,3.311,3.3095,3.3081,3.3069,3.3054,3.3043,3.3022,3.3004,3.2989,3.2966,3.295,3.2941,3.2937,3.2923,3.2922,3.2924,3.2922,3.2915,3.2915,3.2916,3.2906,3.2906,3.2906,0,0,3.3165,3.3149,3.3138,3.3124,3.3102,3.3087,3.3085,3.3059,3.3049,3.3031,3.3015,3.3002,3.2972,3.2957,3.2945,3.2944,3.2932,3.2939,3.2946,3.2939,3.294,3.294,3.2941,3.2942,3.2938,3.2938,3.2938,0,3.3173,3.3151,3.3133,3.312,3.3109,3.3091,3.308,3.3067,3.3039,3.3032,3.3028,3.2992,3.2975,3.2956,3.2956,3.2947,3.2944,3.2941,3.2941,3.2942,3.2942,3.2942,3.2943,3.2939,3.2939,3.2939,3.2939,0,3.3163,3.3149,3.3142,3.3119,3.3107,3.3094,3.3075,3.3065,3.3054,3.304,3.3023,3.3002,3.2981,3.2976,3.2964,3.2956,3.2954,3.2946,3.2938,3.2944,3.2944,3.2944,3.2941,3.294,3.294,3.294,0,0,3.3172,3.3141,3.3139,3.3129,3.3105,3.3093,3.3081,3.3062,3.3055,3.3037,3.3026,3.3003,3.2997,3.2984,3.297,3.2964,3.2967,3.2957,3.2956,3.2961,3.2958,3.2965,3.2965,3.2959,3.2959,3.2959,3.2961,0,3.317,3.3148,3.3133,3.3116,3.3104,3.3088,3.3078,3.3062,3.3049,3.3036,3.3022,3.3006,3.2998,3.299,3.2984,3.2968,3.2966,3.2967,3.2949,3.2949,3.2956,3.2965,3.2971,3.2973,3.296,3.296,3.296,0,3.3163,3.3149,3.3132,3.3112,3.3106,3.3097,3.308,3.3068,3.305,3.3041,3.3028,3.3015,3.3002,3.2997,3.2979,3.2981,3.2972,3.2964,3.2963,3.2961,3.2955,3.2963,3.2973,3.2974,3.296,3.296,3.296,0,3.3173,3.3149,3.3137,3.3128,3.3104,3.3098,3.3088,3.307,3.3061,3.3045,3.3039,3.3022,3.3013,3.3,3.2984,3.2981,3.2968,3.2961,3.2961,3.2961,3.2958,3.2958,3.2968,3.2953,3.2953,3.2953,3.2953,0,3.3172,3.3163,3.3141,3.3133,3.3123,3.3106,3.3096,3.3084,3.3069,3.3059,3.3044,3.3035,3.3013,3.3002,3.2988,3.2977,3.2972,3.2965,3.2962,3.2966,3.2968,3.2961,3.296,3.2953,3.2953,3.2953,3.2953,0,3.318,3.3166,3.3151,3.3131,3.3125,3.3118,3.3101,3.3093,3.308,3.3068,3.3064,3.3044,3.303,3.3013,3.2992,3.2983,3.2973,3.2968,3.298,3.2978,3.2979,3.298,3.2984,3.2985,3.2969,3.2969,3.297,0,3.3181,3.3174,3.3153,3.3146,3.3137,3.3125,3.3116,3.31,3.3091,3.3073,3.3067,3.3053,3.304,3.3018,3.3001,3.2986,3.2981,3.2984,3.2978,3.2984,3.2982,3.2983,3.2983,3.2985,3.2985,3.2985,3.2985,0,3.3183,3.3177,3.3165,3.3152,3.3142,3.313,3.3118,3.3113,3.3094,3.3085,3.3072,3.3062,3.3043,3.3029,3.3012,3.3001,3.299,3.2988,3.2987,3.2992,3.2999,3.2996,3.2984,3.2987,3.2987,3.2987,3.2987,3.2987,3.3188,3.3182,3.3167,3.3155,3.3145,3.3134,3.3127,3.3115,3.3104,3.3088,3.3079,3.3066,3.3051,3.3028,3.3018,3.3007,3.3003,3.3002,3.3002,3.3002,3.3004,3.3002,3.3004,3.3004,3.3004,3.3004,3.3004,0,3.319,3.3181,3.3171,3.3155,3.3146,3.3139,3.3125,3.3118,3.3108,3.3095,3.3084,3.3069,3.3056,3.304,3.3026,3.3021,3.3016,3.3018,3.3018,3.3016,3.3008,3.301,3.3023,3.3023,3.3023,3.3023,3.3023,3.3023,3.3191,3.3181,3.3173,3.3158,3.3149,3.3137,3.3131,3.3121,3.3111,3.3097,3.3086,3.3077,3.3063,3.3049,3.3037,3.3032,3.3028,3.3032,3.3026,3.3018,3.3017,3.3015,3.3017,3.3031,3.3031,3.3036,3.3036,3.3036]}]]